Terminal Aerodrome Forecast
Issued by NWS

Home | Current Version | Previous Version | Text Only | Print | Product List | Glossary Off
Versions: 1 2 3 4 5 6 7 8 9 10 11 12 13 14

000
FTUS43 KICT 262200 AAA
TAFHUT
TAF AMD
KHUT 262210Z 2622/2718 24008KT P6SM SCT130
     FM270000 19008KT P6SM SCT100
     FM270400 01009KT P6SM VCTS BKN100CB
     FM271400 02013KT P6SM FEW040 BKN120=

USA.gov is the U.S. government's official web portal to all federal, state and local government web resources and services.